User: anonymous   Login
Location: Unspecified
(0.0000°N, 0.0000°E)
Time: 01:24:44
(UTC+02:00)
Language:

Cosmos 2251 - Orbit

View from above orbital plane
View from above orbital plane
View from above satellite
View from above satellite

Ground track
Ground track

The orbit data is extracted from the following two-line orbital elements,

1 22675U 93036A   16144.59877000 +.00000036 +00000-0 +22929-4 0  9992
2 22675 074.0391 207.0965 0024054 059.4007 300.9512 14.32473787197954
Epoch (UTC): 23 May 2016 14:22:13
Eccentricity: 0.0024054
inclination: 74.0391°
perigee height: 766 km
apogee height: 801 km
right ascension of ascending node: 207.0965°
argument of perigee: 59.4007°
revolutions per day: 14.32473787
mean anomaly at epoch: 300.9512°
orbit number at epoch: 19795

The dashed part of the orbit path shows where the satellite is in the earth's shadow,  

DLR